This is the latest recevied weather packets stored in our database for station/object YT1XN-8. If no packets are shown the sender has not sent any weather packets the latest 10 day(s).
| Time | Temp. | Humidity | Pressure | Rain* | Wind** | Luminosity | Snow |
|---|---|---|---|---|---|---|---|
| 1777720844 | 18.89° C | 49% | 1023 hPa | 0 mm | - | - | - |
| 1777720422 | 18.89° C | 45% | 1023 hPa | 0 mm | - | - | - |
| 1777720243 | 19.44° C | 47% | 1023.2 hPa | 0 mm | - | - | - |
| 1777719762 | 19.44° C | 49% | 1023.4 hPa | 0 mm | - | - | - |
| 1777719643 | 19.44° C | 49% | 1023.4 hPa | 0 mm | - | - | - |
| 1777719102 | 19.44° C | 48% | 1023.6 hPa | 0 mm | - | - | - |
| 1777719044 | 19.44° C | 47% | 1023.7 hPa | 0 mm | - | - | - |
| 1777718442 | 20° C | 50% | 1023.8 hPa | 0 mm | - | - | - |
| 1777717844 | 19.44° C | 48% | 1023.9 hPa | 0 mm | - | - | - |
| 1777717782 | 19.44° C | 50% | 1023.9 hPa | 0 mm | - | - | - |
| 1777717244 | 18.89° C | 52% | 1023.9 hPa | 0 mm | - | - | - |
| 1777717122 | 18.89° C | 52% | 1023.9 hPa | 0 mm | - | - | - |
| 1777716643 | 18.33° C | 52% | 1024 hPa | 0 mm | - | - | - |
| 1777716462 | 17.78° C | 50% | 1024.1 hPa | 0 mm | - | - | - |
| 1777716043 | 18.33° C | 52% | 1024.1 hPa | 0 mm | - | - | - |
| 1777715802 | 17.78° C | 51% | 1024.3 hPa | 0 mm | - | - | - |
| 1777715444 | 18.33° C | 50% | 1024.3 hPa | 0 mm | - | - | - |
| 1777715142 | 18.33° C | 49% | 1024.5 hPa | 0 mm | - | - | - |
| 1777714843 | 17.78° C | 53% | 1024.5 hPa | 0 mm | - | - | - |
| 1777714482 | 17.78° C | 50% | 1024.6 hPa | 0 mm | - | - | - |
| 1777714243 | 17.78° C | 49% | 1024.6 hPa | 0 mm | - | - | - |
| 1777713822 | 17.78° C | 49% | 1024.7 hPa | 0 mm | - | - | - |
| 1777713644 | 17.78° C | 52% | 1024.8 hPa | 0 mm | - | - | - |
| 1777713162 | 17.78° C | 52% | 1024.8 hPa | 0 mm | - | - | - |
| 1777713043 | 17.78° C | 53% | 1024.8 hPa | 0 mm | - | - | - |
* Rain latest hour (hover to see other rain measurements)
** Current wind speed in m/s (hover to see current wind gust speed)